Regional Weather Roundup
Issued by NWS Sioux Falls, SD

Home | Current Version | Previous Version | Graphics & Text | Print | Product List | Glossary On
Versions: 1 2 3 4 5 6 7 8 9 10 11 12 13 14 15 16 17 18 19 20 21 22 23 24 25 26 27 28 29 30 31 32 33 34 35 36 37 38 39 40 41 42 43 44 45 46 47 48 49 50
000
ASUS43 KFSD 040202
RWRFSD

WEATHER ROUNDUP FOR SE SOUTH DAKOTA/SW MINNESOTA/NW IOWA
NATIONAL WEATHER SERVICE SIOUX FALLS SD
800 PM CST TUE MAR 03 2015

NOTE: "FAIR" INDICATES FEW OR NO CLOUDS BELOW 12,000 FEET WITH NO
SIGNIFICANT WEATHER AND OR OBSTRUCTIONS TO VISIBILITY.


SDZ038>040-050-052>070-040300-
SOUTHEAST SOUTH DAKOTA

CITY           SKY/WX    TMP DP  RH WIND       PRES   REMARKS
CHAMBERLAIN    NOT AVBL
HURON          PTCLDY     5  -1  76 NW8       30.08R WCI  -8
MADISON        FAIR       1   0  92 NW9       30.02R WCI -14
MITCHELL       PTCLDY     9   1  70 NW7       30.08R WCI  -2
SIOUX FALLS    PTCLDY    11   2  67 NW10      30.04R WCI  -3
WINNER         CLOUDY    12   0  58 W10       30.06R WCI  -1
YANKTON        CLEAR     12   3  67 NW8       30.10R WCI   1
$$

MNZ071-072-080-081-089-090-097-098-040300-
SOUTHWEST MINNESOTA

CITY           SKY/WX    TMP DP  RH WIND       PRES   REMARKS
FAIRMONT       CLEAR     12   1  62 W17G25    29.98R WCI  -5
JACKSON        CLEAR     12   3  67 NW17G24   29.99R WCI  -5
LUVERNE        CLEAR     12   3  67 NW14G20   30.04R WCI  -3
MARSHALL       CLEAR      9   0  66 NW14      30.05R WCI  -8
MONTEVIDEO     FAIR       9   5  85 N12       30.04S WCI  -6
PIPESTONE      CLEAR      9   1  72 NW13G21   30.01R WCI  -7
REDWOOD FALLS  CLEAR     10   1  67 NW16      30.02R WCI  -7
TRACY          CLEAR     10   3  72 NW18      30.02R WCI  -8
WINDOM         CLEAR     10   1  67 NW18      29.99R WCI  -8
WORTHINGTON    CLEAR      9   0  66 NW18      30.01R WCI -10
$$

IAZ001>003-012>014-020>022-031-032-NEZ013-014-SDZ071-040300-
NORTHWEST IOWA

CITY           SKY/WX    TMP DP  RH WIND       PRES   REMARKS
DENISON        FAIR      16   7  67 N13G20    30.03R WCI   2
ESTHERVILLE    CLEAR     11   4  73 NW20      30.01R WCI  -7
SIOUX CITY     CLEAR     18   6  59 N14       30.08R WCI   4
SPENCER        PTCLDY    12   4  70 NW12      30.04R WCI  -2
$$

ABBREVIATIONS USED IN REMARKS
   TC - TEMPERATURE IN CELSIUS
  WCI - WIND CHILL INDEX
   HX - HEAT INDEX
  VSB - VISIBILITY



USA.gov is the U.S. government's official web portal to all federal, state and local government web resources and services.